Location: Pinhead Observatory
(34.4473°N, 118.1985°W)
Time: 13:20:44
(UTC-08:00)

CZ-4C R/B - Visible Passes

Search period start: 20 November 2017 00:00
Search period end: 30 November 2017 00:00
Orbit: 704 x 1298 km, 63.4° (Epoch: 19 November)

Date Brightness Start Highest point End Pass type
(mag) Time Alt. Az. Time Alt. Az. Time Alt. Az.
20 Nov 4.4 17:42:09 10° N 17:45:55 15° NE 17:47:31 14° NE visible
20 Nov 3.8 19:28:31 10° NNW 19:32:45 37° N 19:32:45 37° N visible
20 Nov 5.5 21:17:59 10° NW 21:17:59 10° NW 21:17:59 10° NW visible
21 Nov 3.7 18:14:17 10° N 18:20:20 27° NE 18:20:54 27° NE visible
21 Nov 4.0 20:02:01 10° NW 20:06:09 37° NW 20:06:09 37° NW visible
22 Nov 3.0 18:47:11 10° NNW 18:54:19 52° NE 18:54:35 52° ENE visible
22 Nov 4.7 20:36:12 10° NW 20:39:51 26° WNW 20:39:51 26° WNW visible
23 Nov 3.9 17:33:07 10° N 17:38:42 23° NE 17:43:23 14° E visible
23 Nov 2.9 19:20:32 10° NNW 19:28:01 82° WSW 19:28:42 75° S visible
23 Nov 5.4 21:12:05 10° WNW 21:14:01 13° W 21:14:01 13° W visible
24 Nov 3.2 18:05:51 10° NNW 18:12:49 44° NE 18:18:11 19° ESE visible
24 Nov 4.0 19:54:30 10° NW 20:01:26 40° WSW 20:03:35 34° SW visible
25 Nov 2.9 18:39:05 10° NNW 18:46:33 85° ENE 18:54:41 10° SSE visible
25 Nov 5.1 20:29:41 10° WNW 20:34:35 18° WSW 20:39:41 10° SSW visible
26 Nov 3.4 17:24:34 10° NNW 17:31:15 37° NE 17:38:31 10° ESE visible
26 Nov 3.8 19:12:52 10° NW 19:20:03 49° WSW 19:27:44 10° S visible
27 Nov 2.9 17:57:41 10° NNW 18:05:05 72° ENE 18:13:09 10° SE visible
27 Nov 5.0 19:47:36 10° WNW 19:53:16 23° WSW 19:59:12 10° SSW visible
28 Nov 3.5 18:31:18 10° NW 18:38:38 59° WSW 18:46:33 10° SSE visible
29 Nov 3.0 17:16:18 10° NNW 17:23:36 61° ENE 17:31:33 10° SE visible
29 Nov 4.8 19:05:42 10° NW 19:11:56 28° WSW 19:18:30 10° SSW visible
